[[{"header":{"parameterUnit":"m.s-1","parameterCategory":1,"la1":30.2991,"la2":30.254,"lo1":-89.0895,"lo2":-89.0444,"dy":0.0017,"dx":0.0017,"nx":28,"ny":28,"refTime":"2025-09-05T03:00:00:Z","depth":0,"parameterNumber":2,"parameterNumberName":"U-component_of_WINDS"},"data":[0,0,0,0,0,0,0,0,0,0,0,0,0,0,0,0,0,0,0,0,0,0,0,0,0,0,0,0,0,0,0,0,0,0,0,0,0,0,0,0,0,0,0,0,0,0,0,0,0,0,0,0,0,0,0,0,0,0,0.3939,0.394,0,0.4048,0.4049,0.405,0.409,0.409,0.4089,0.4089,0.4203,0.4206,0.421,0,0,0,0,0,0,0,0,0,0,0,0,0,0.3765,0.3767,0.3938,0.394,0.3941,0.4047,0.4049,0.405,0.409,0.409,0.4089,0.4089,0.4202,0.4206,0.421,0,0,0,0,0,0,0,0,0,0,0,0,0,0.3853,0.3768,0.3938,0.3974,0.3978,0.4047,0.4049,0.4051,0.409,0.409,0.4089,0.4089,0.4201,0.4206,0.4211,0.4253,0,0,0.4226,0.4228,0,0,0,0,0,0,0,0,0.3848,0.386,0.3967,0.3971,0.3976,0.4055,0.4029,0.4119,0.409,0.4048,0.4089,0.4088,0.4154,0.4163,0.4185,0.4258,0.4263,0.4227,0.423,0.4232,0.4233,0,0,0,0,0,0,0,0.3842,0.3855,0.3982,0.3969,0.3974,0.3984,0.3996,0.4046,0.4103,0.4051,0.4054,0.4067,0.4157,0.418,0.4188,0.4265,0.4226,0.4231,0.4234,0.4236,0.4376,0.4376,0,0,0,0,0,0,0.383,0.385,0.3978,0.3985,0.391,0.3988,0.4001,0.403,0.4102,0.4113,0.4067,0.4068,0.4171,0.4182,0.4192,0.4245,0.4232,0.4237,0.4239,0.4375,0.4376,0.4376,0,0,0,0,0,0,0.3826,0.3841,0.3974,0.3918,0.3936,0.3991,0.4023,0.4032,0.4056,0.4114,0.4125,0.408,0.4171,0.4185,0.4237,0.4249,0.4239,0.4243,0.4374,0.4375,0.4376,0.4351,0,0,0,0,0,0,0.3821,0.3839,0.3856,0.3918,0.3939,0.4017,0.4024,0.4035,0.4064,0.4067,0.413,0.4139,0.4172,0.4229,0.4242,0.4256,0.4247,0.4373,0.4375,0.4376,0.4351,0.4351,0.4351,0,0,0,0,0,0.3815,0.3846,0.3857,0.3872,0.3961,0.4017,0.4029,0.4065,0.4065,0.4082,0.4119,0.4137,0.4245,0.4234,0.4249,0.4265,0.4373,0.4374,0.4376,0.4351,0.4351,0.4351,0,0,0,0,0,0,0.3786,0.3855,0.3868,0.3921,0.3962,0.4024,0.4047,0.4065,0.4108,0.4109,0.4153,0.4166,0.4214,0.4245,0.4231,0.4308,0.431,0.4315,0.4287,0.4287,0.4287,0.4279,0.4252,0,0,0,0,0,0.3785,0.3825,0.3884,0.3924,0.3945,0.3992,0.4018,0.4042,0.4087,0.4106,0.4147,0.4191,0.4234,0.4262,0.4306,0.4355,0.4369,0.4374,0.4374,0.4373,0.4377,0.4403,0.4405,0.4381,0.4381,0.4381,0,0,0.3786,0.3828,0.3851,0.392,0.3955,0.3995,0.4007,0.4049,0.4079,0.4113,0.4163,0.4194,0.4246,0.4296,0.432,0.4323,0.4386,0.4375,0.4375,0.4379,0.4405,0.4407,0.4409,0.4382,0.4382,0.4382,0,0,0.3806,0.3843,0.388,0.3914,0.3966,0.3997,0.4005,0.4064,0.4085,0.4136,0.4162,0.4197,0.4272,0.4308,0.4335,0.4364,0.4382,0.4377,0.4378,0.4403,0.4405,0.4407,0.4416,0.4419,0.4381,0.4381,0.4381,0,0.38,0.3861,0.3897,0.3936,0.3965,0.3995,0.4032,0.4064,0.4128,0.4147,0.4149,0.4241,0.4279,0.4336,0.4343,0.4365,0.4375,0.4371,0.4402,0.4404,0.4406,0.4416,0.4419,0.438,0.438,0.438,0.438,0,0.3849,0.3891,0.3914,0.3973,0.4005,0.4043,0.4084,0.4112,0.4132,0.4162,0.4212,0.4257,0.4309,0.4325,0.4346,0.4384,0.4384,0.4393,0.4396,0.4407,0.4416,0.442,0.4378,0.4379,0.4379,0.4379,0,0,0.3857,0.3933,0.3941,0.3967,0.4026,0.4059,0.4097,0.4147,0.4169,0.4211,0.4244,0.4305,0.4312,0.4344,0.4369,0.439,0.4409,0.4397,0.4398,0.4397,0.4452,0.4445,0.4449,0.442,0.4421,0.4422,0.4448,0,0.3884,0.3955,0.3987,0.4042,0.408,0.4107,0.4141,0.418,0.4208,0.4244,0.4276,0.4318,0.4325,0.4344,0.4367,0.4401,0.442,0.44,0.4451,0.4453,0.4438,0.4454,0.4447,0.447,0.4452,0.4452,0.4453,0,0.3927,0.3967,0.4026,0.4077,0.4094,0.4124,0.417,0.4204,0.4248,0.4267,0.43,0.4323,0.4364,0.4363,0.4419,0.4405,0.4427,0.4447,0.4449,0.4456,0.4454,0.4461,0.4478,0.4481,0.4459,0.4459,0.4458,0,0.3925,0.3994,0.4038,0.4059,0.4121,0.414,0.4167,0.421,0.4237,0.4278,0.4295,0.434,0.4365,0.4399,0.4433,0.443,0.4486,0.4488,0.4502,0.4501,0.4514,0.4513,0.4535,0.4528,0.4528,0.4528,0.4528,0,0.3952,0.3987,0.4037,0.4064,0.4103,0.4139,0.4176,0.4205,0.4243,0.4275,0.4302,0.4332,0.4375,0.441,0.4437,0.4479,0.449,0.4506,0.4513,0.4504,0.4502,0.452,0.4519,0.4529,0.4529,0.4528,0.4528,0,0.3957,0.3992,0.4041,0.4094,0.4108,0.4135,0.418,0.4207,0.4235,0.4275,0.4287,0.4332,0.4374,0.4411,0.4468,0.4486,0.4528,0.4537,0.4513,0.4517,0.4529,0.4527,0.4563,0.457,0.4558,0.4558,0.4558,0,0.3972,0.3999,0.4054,0.4077,0.4103,0.414,0.4166,0.4202,0.4228,0.4279,0.4299,0.4343,0.438,0.4446,0.4484,0.4527,0.4536,0.4546,0.4543,0.4532,0.4536,0.4534,0.4536,0.4546,0.4546,0.4546,0.4546,0,0.3995,0.401,0.4047,0.4089,0.412,0.4155,0.4192,0.4209,0.4251,0.4279,0.4322,0.435,0.4406,0.4449,0.4496,0.4523,0.4541,0.4546,0.4552,0.4543,0.4528,0.4535,0.4513,0.4546,0.4546,0.4546,0.4546,0.4546,0.4005,0.4029,0.4071,0.4111,0.4141,0.4173,0.42,0.4231,0.4267,0.4315,0.4333,0.4376,0.4418,0.4481,0.4508,0.4542,0.4546,0.4554,0.4556,0.4557,0.4555,0.4521,0.4551,0.4551,0.4551,0.4551,0.4551,0,0.4028,0.4055,0.4091,0.414,0.4171,0.4183,0.4223,0.4248,0.4286,0.4322,0.4357,0.4405,0.4446,0.4486,0.4529,0.4548,0.4557,0.4558,0.4557,0.4563,0.455,0.4541,0.455,0.455,0.455,0.455,0.455,0.455,0.4043,0.4085,0.4104,0.416,0.4188,0.4229,0.4251,0.4281,0.431,0.4362,0.4395,0.442,0.4458,0.4503,0.4541,0.4551,0.4566,0.4564,0.4577,0.4565,0.4564,0.4564,0.4555,0.4567,0.4567,0.4587,0.4587,0.4587]},{"header":{"parameterUnit":"m.s-1","parameterCategory":1,"la1":30.2991,"la2":30.254,"lo1":-89.0895,"lo2":-89.0444,"dy":0.0017,"dx":0.0017,"nx":28,"ny":28,"refTime":"2025-09-05T03:00:00:Z","depth":0,"parameterNumber":3,"parameterNumberName":"V-component_of_WINDS"},"data":[0,0,0,0,0,0,0,0,0,0,0,0,0,0,0,0,0,0,0,0,0,0,0,0,0,0,0,0,0,0,0,0,0,0,0,0,0,0,0,0,0,0,0,0,0,0,0,0,0,0,0,0,0,0,0,0,0,0,2.9647,2.9647,0,2.9563,2.9562,2.9561,2.9513,2.9512,2.9512,2.9512,2.942,2.9417,2.9415,0,0,0,0,0,0,0,0,0,0,0,0,0,2.9761,2.9759,2.9648,2.9646,2.9645,2.9563,2.9562,2.956,2.9513,2.9512,2.9512,2.9512,2.942,2.9418,2.9415,0,0,0,0,0,0,0,0,0,0,0,0,0,2.9698,2.9759,2.9648,2.9612,2.9608,2.9563,2.9562,2.956,2.9513,2.9512,2.9512,2.9512,2.9421,2.9418,2.9414,2.9397,0,0,2.9404,2.9402,0,0,0,0,0,0,0,0,2.9701,2.9693,2.9618,2.9614,2.961,2.9548,2.9568,2.9505,2.9513,2.9549,2.9512,2.9512,2.9462,2.9455,2.944,2.9393,2.9389,2.9403,2.9401,2.94,2.9399,0,0,0,0,0,0,0,2.9706,2.9697,2.9614,2.9617,2.9612,2.9598,2.9588,2.9556,2.9507,2.9545,2.9542,2.9533,2.946,2.9443,2.9437,2.9388,2.9404,2.94,2.9398,2.9397,2.9319,2.9319,0,0,0,0,0,0,2.9717,2.9701,2.9616,2.9611,2.9656,2.9596,2.9585,2.9568,2.9508,2.9498,2.9533,2.9531,2.9449,2.9441,2.9434,2.9408,2.94,2.9397,2.9395,2.9319,2.9319,2.9319,0,0,0,0,0,0,2.9719,2.971,2.962,2.9655,2.9642,2.9594,2.9575,2.9566,2.955,2.9498,2.9489,2.9525,2.9449,2.9439,2.9406,2.9404,2.9395,2.9392,2.9319,2.9319,2.9319,2.9358,0,0,0,0,0,0,2.9723,2.9711,2.9706,2.9655,2.9641,2.9596,2.9575,2.9565,2.9545,2.9541,2.9489,2.948,2.9448,2.9412,2.9403,2.9399,2.9389,2.9319,2.9319,2.9319,2.9356,2.9359,2.9361,0,0,0,0,0,2.9727,2.9719,2.9706,2.9696,2.9634,2.9596,2.9588,2.9553,2.9545,2.9538,2.9504,2.9481,2.9406,2.9409,2.9399,2.9394,2.9319,2.9319,2.9319,2.9355,2.9358,2.9361,0,0,0,0,0,0,2.9769,2.9712,2.9696,2.9672,2.964,2.9589,2.9579,2.9558,2.9525,2.9523,2.9479,2.9468,2.9439,2.9413,2.9418,2.9372,2.936,2.9358,2.9391,2.9393,2.9396,2.9402,2.9386,0,0,0,0,0,2.9776,2.9753,2.9703,2.9686,2.9671,2.9628,2.961,2.9586,2.955,2.9535,2.9499,2.9463,2.9431,2.9411,2.9378,2.9352,2.9339,2.9343,2.9346,2.9348,2.9347,2.9328,2.9329,2.932,2.932,2.932,0,0,2.9789,2.9755,2.9743,2.9694,2.9666,2.964,2.9617,2.9591,2.9571,2.9531,2.9498,2.9471,2.9427,2.9397,2.9382,2.9375,2.9346,2.9348,2.935,2.9347,2.9328,2.9329,2.933,2.932,2.932,2.932,0,0,2.98,2.9773,2.9755,2.9727,2.9686,2.9657,2.9652,2.9604,2.9584,2.9552,2.952,2.9494,2.9441,2.941,2.9388,2.9385,2.9362,2.9375,2.9388,2.9371,2.9371,2.9372,2.9369,2.9369,2.9374,2.9374,2.9374,0,2.9821,2.9783,2.9748,2.9724,2.9702,2.9666,2.9647,2.9621,2.957,2.9555,2.9547,2.9478,2.9446,2.9407,2.9407,2.939,2.9382,2.9381,2.9375,2.9375,2.9374,2.9371,2.9371,2.9376,2.9376,2.9376,2.9376,0,2.981,2.9785,2.9775,2.9728,2.9705,2.9684,2.9643,2.9623,2.9601,2.9572,2.9537,2.9497,2.9456,2.9445,2.9422,2.9402,2.9399,2.9384,2.937,2.9378,2.9374,2.9373,2.9379,2.9378,2.9378,2.9377,0,0,2.9846,2.9779,2.9776,2.9754,2.9704,2.9682,2.9657,2.9618,2.9601,2.9567,2.9543,2.9498,2.9483,2.9458,2.9431,2.9416,2.9414,2.9402,2.94,2.9404,2.9387,2.9398,2.9398,2.9398,2.9398,2.9398,2.939,0,2.9848,2.9805,2.9771,2.9739,2.9713,2.9678,2.9656,2.9622,2.9594,2.9566,2.9533,2.9501,2.9485,2.9469,2.9453,2.9418,2.9409,2.9418,2.9374,2.9372,2.9385,2.9396,2.9408,2.9403,2.9389,2.9388,2.9388,0,2.9846,2.9814,2.978,2.9731,2.9719,2.9701,2.9661,2.9635,2.9595,2.9575,2.9546,2.9518,2.9487,2.9477,2.9433,2.9439,2.9419,2.9398,2.9397,2.9391,2.9381,2.9389,2.9401,2.94,2.9386,2.9386,2.9386,0,2.9873,2.9821,2.9794,2.9776,2.9719,2.9706,2.9682,2.9641,2.9619,2.9583,2.9568,2.9529,2.9507,2.9476,2.9437,2.9433,2.9395,2.9382,2.9376,2.9377,2.937,2.937,2.9377,2.9358,2.9358,2.9358,2.9358,0,2.9878,2.9859,2.9805,2.9788,2.9764,2.9724,2.9701,2.9673,2.9636,2.9611,2.9578,2.9554,2.9505,2.9475,2.9444,2.941,2.9401,2.9382,2.9374,2.9385,2.9387,2.9371,2.9369,2.9358,2.9358,2.9358,2.9358,0,2.9905,2.9869,2.9836,2.9785,2.9772,2.9756,2.9711,2.9692,2.9661,2.963,2.962,2.9572,2.9534,2.9493,2.9441,2.942,2.9388,2.9377,2.9403,2.9398,2.9394,2.9394,2.9389,2.9386,2.937,2.9371,2.9371,0,2.991,2.9894,2.9842,2.9824,2.9801,2.9772,2.9749,2.9709,2.9686,2.9638,2.9624,2.9584,2.955,2.9492,2.945,2.941,2.9397,2.9398,2.939,2.9401,2.9395,2.9396,2.9393,2.94,2.94,2.94,2.9401,0,2.9924,2.9906,2.9876,2.984,2.9814,2.9783,2.975,2.9736,2.9689,2.9665,2.9627,2.9601,2.9548,2.9508,2.9463,2.9434,2.9408,2.9403,2.94,2.941,2.9425,2.9416,2.9408,2.9404,2.9403,2.9403,2.9403,2.9403,2.9938,2.9922,2.9883,2.985,2.9821,2.9791,2.977,2.9737,2.9706,2.9662,2.9639,2.9601,2.9558,2.9494,2.9467,2.9434,2.9426,2.9421,2.9419,2.9419,2.9421,2.9431,2.9426,2.9426,2.9425,2.9425,2.9425,0,2.9949,2.9922,2.9892,2.9848,2.9821,2.9802,2.9764,2.9742,2.971,2.9673,2.9641,2.9596,2.9557,2.9513,2.947,2.9453,2.944,2.9443,2.9443,2.9436,2.9431,2.9438,2.9454,2.9454,2.9454,2.9454,2.9454,2.9454,2.9951,2.9922,2.99,2.9855,2.9827,2.9791,2.9771,2.9742,2.9712,2.9665,2.9633,2.9605,2.9564,2.9518,2.948,2.9468,2.9453,2.9459,2.9443,2.9439,2.9437,2.9435,2.9441,2.9457,2.9457,2.9451,2.9451,2.9451]}]]